Regional Weather Roundup
Issued by NWS Newport/Morehead, NC

Current Version | Previous Version | Graphics & Text | Print | Product List | Glossary Off
Versions: 1 2 3 4 5 6 7 8 9 10 11 12 13 14 15 16 17 18 19 20 21 22 23 24 25 26 27 28 29 30 31 32 33 34 35 36 37 38 39 40 41 42 43 44 45 46 47 48 49 50

000
ASUS42 KMHX 230710
RWRMHX
WEATHER ROUNDUP FOR EASTERN NORTH CAROLINA
NATIONAL WEATHER SERVICE NEWPORT/MOREHEAD CITY NC
300 AM EDT THU OCT 23 2014

NOTE: "FAIR" INDICATES FEW OR NO CLOUDS BELOW 12,000 FEET
WITH NO SIGNIFICANT WEATHER AND/OR OBSTRUCTIONS TO VISIBILITY

NCZ015>017-031-032-045>047-102-103-230800-
NORTH COAST

CITY           SKY/WX    TMP DP  RH WIND       PRES   REMARKS
EDENTON        CLOUDY    54  45  73 NW9       29.93S
ELIZABETH CITY CLOUDY    55  45  68 W15       29.90S
KITTY HAWK     CLOUDY    56  47  72 W12G24    29.87S
MANTEO         CLOUDY    55  47  72 NW12G20   29.89S

$$

NCZ045>047-081-094-103-104-230800-
CENTRAL COAST

CITY           SKY/WX    TMP DP  RH WIND       PRES   REMARKS
FRISCO         MOCLDY    56  48  74 NW14G24   29.89F
SWANQUARTER      N/A     54 N/A N/A NW15      29.88F

$$

NCZ095-097-098-100-101-230800-
SOUTHERN COAST

CITY           SKY/WX    TMP DP  RH WIND       PRES   REMARKS
BEAUFORT       MOCLDY    55  47  74 NW17      29.95F
CEDAR ISLAND     N/A     57 N/A N/A NW17G31   29.97S
JACKSONVILLE   CLEAR     49  45  86 W5        29.99S
PINEY ISLAND   MOSUNNY   57  47  69 W12G23    29.94F
WILMINGTON     CLEAR     50  43  77 NW8       30.01S


$$

NCZ011>013-027>030-043-044-078>080-089-090>093-098-230800-
COASTAL PLAIN

CITY           SKY/WX    TMP DP  RH WIND       PRES   REMARKS
AHOSKIE        MOCLDY    48  44  84 CALM      29.96S
CLINTON        CLEAR     49  44  83 W5        30.03S
ELIZABETHTOWN  CLEAR     50  42  75 NW5       30.03S
GOLDSBORO      CLEAR     49  48  96 W6        29.99S
GREENVILLE     CLEAR     52  46  82 NW3       29.99F
HAVELOCK       MOCLDY    53  46  77 W10       29.98F
KENANSVILLE    CLEAR     48  43  82 W3        30.01F
KINSTON        CLEAR     50  45  83 W5        29.99F
NEW BERN       CLEAR     54  46  74 NW7       29.98F
RICHLANDS      CLEAR     50  41  71 W3        30.00F
ROCKY MOUNT    CLEAR     49  43  80 W5        29.99F
WASHINGTON     CLEAR     51  44  77 NW5       29.97F
WHITEVILLE     CLEAR     50  42  73 CALM      30.03S

$$

AMZ130-135-150-152-154-156-158-170-250-252-270-ANZ085-086-088-633-658-670-230800-
MARINE OBSERVATIONS

STATION/POSITION TIME  TEMP    WIND        PRES    WAVE   SWELL
                       AIR SEA DIR/SP/G            HT/PER HT/PER
                 (UTC) (F)     (DEG/KT/KT) (MB)    (FT/S) (FT/S)
CHESAPEAKE LIGHT 0600   58     320/ 27/ 32 1011.0
64 E VA BEACH    0700   61 70  320/ 25/ 31 1007.7   10/ 9   7/ 9
DUCK             0700   55 67  290/ 19/ 24 1010.7
2 E DUCK         0700                        N/A     6/ 9   2/11
10 NE DUCK       0700      68                N/A     9/ 9   2/11
OREGON INLET     0700   56 63  290/ 16/ 22 1011.5
13E OREGON INLT  0700      72                N/A     9/ 9   2/11
HATTERAS CG      0700   58 65  320/ 22/ 26 1012.7
DIAMOND BUOY     0700   59     310/ 21/ 27 1011.8    6/ 5   2/11
17 S OCRACOKE    NOT AVBL
CAPE LOOKOUT     0600   58     320/ 14/ 18 1014.5
BEAUFORT LAB     0700   56 67  320/  6/ 13 1013.8
30 SE NEW RIVER  0700   62 75  340/ 19/ 25 1014.4    4/ 5
5 SE WRIGHTSVLE  0700   54 72  340/ 17/ 21   N/A
225 S CAPE HAT   0552   70 78  320/ 14/ 17 1013.5    8/ 7   7/ 7
41 SE CHARLESTON 0700   65 78  360/ 16/ 21 1016.1    3/ 4   2/ 9

$$



USA.gov is the U.S. government's official web portal to all federal, state and local government web resources and services.